Weather in Kunming

China     25°02′47″N   102°42′40″E
temp.,
°C
wind,
m/s
gust,
m/s
humid.,
%
clouds,
%
prec.,
mm/h
press.,
hPa
HPBL,
m
8 may, sat
sat823:00+19ssw37553 0.0 1012463
02:00+18sw13625 0.0 1011219
05:00+17sw13665 0.0 1011213
08:00+17wsw13620 0.0 1013374
11:00+22wsw253734 0.0 10121670
14:00+26wsw3525100 0.0 10072498
17:00+28sw662374 0.0 10032831
20:00+24w35327 0.0 1005941
9 may, sun
sun923:00+22s35415 0.0 1008672
02:00+20s3649100 0.1 1009786
05:00+19ssw3656100 0.3 1008432
08:00+19ssw35566 0.3 1010502
11:00+24wsw47375 0.0 10082110
14:00+27sw682691 0.0 10042995
17:00+26wsw692832 0.0 10012512
20:00+24sw610355 0.0 10021732
10 may, mon
mon1023:00+21sw5104949 0.0 1006998
02:00+19ssw38580 0.0 1005677
05:00+18sw38655 0.0 1004608
08:00+18sw38635 0.0 1006805
11:00+24wsw710350 0.0 10051936
14:00+27wsw7112863 0.0 10012773
17:00+26wsw81130100 0.0 10002866
20:00+23ssw610459 0.0 10021374
11 may, tue
tue1123:00+20sw511531 0.0 10051240
02:00+19sw39584 0.0 1005913
05:00+18sw26630 0.0 1006465
08:00+18sw37625 0.0 1007587
11:00+24wsw59365 0.0 10062124
14:00+28wsw79265 0.0 10022766
17:00+27sw883166 0.0 10002495
20:00+24ssw794193 0.0 10021467
12 may, wed
wed1223:00+22ssw59505 0.0 1006993
02:00+20ssw37580 0.0 1006580
05:00+18sw24634 0.0 1006391
08:00+19sw346390 0.0 1007511
11:00+24sw573947 0.0 10052130
14:00+26w6103374 0.0 10022455
17:00+25ssw783548 0.0 10002137
20:00+23ssw6104238 0.0 10021669